Weather History for Lamar, CO

Change the Weather History Date:

Wednesday, February 13, 2013

  Actual Average Record
Temperature  
Mean Temperature 33 °F 33 °F  
Max Temperature 55 °F 49 °F 80 °F (1954)
Min Temperature 10 °F 17 °F -15 °F (1948)
Degree Days  
Heating Degree Days 32 32  
Month to date heating degree days 376 431  
Since 1 July heating degree days 3595 3862  
Cooling Degree Days 0 0  
Month to date cooling degree days 0 0  
Year to date cooling degree days 0 0  
Moisture  
Dew Point 6 °F    
Average Humidity 45    
Maximum Humidity 73    
Minimum Humidity 17    
Precipitation  
Precipitation 0.00 in 0.01 in 0.15 in (1928)
Month to date precipitation T 0.18  
Year to date precipitation 0.02 0.48  
Sea Level Pressure  
Sea Level Pressure 30.02 in    
Wind  
Wind Speed 5 mph (SW)    
Max Wind Speed 14 mph    
Max Gust Speed 17 mph    
Visibility 10 miles    
Events      
T = Trace of Precipitation, MM = Missing Value Source: NWS Daily Summary

Daily Weather History Graph

Daily Weather History Graph

Search for Another Location

Airport:

Trip Planner

Search our weather history database for the weather conditions in past years. The results will help you decide how hot, cold, wet, or windy it might be!

Date:

Astronomy

Feb. 13, 2013 Rise Set
Actual Time 6:42 AM MST 5:27 PM MST
Civil Twilight 6:15 AM MST 5:54 PM MST
Nautical Twilight 5:44 AM MST 6:25 PM MST
Astronomical Twilight 5:14 AM MST 6:56 PM MST
Moon 8:17 AM MST (2/13) 9:27 PM MST (2/13)
Length of Visible Light 11h 38m
Length of Day
10h 44m
Waxing Crescent, 14% of the Moon is Illuminated
Feb 13
Waxing Crescent
Feb 17
First Quarter
Feb 25
Full
Mar 4
Last Quarter
Mar 11
New

Hourly Weather History & Observations

Time (MST) Temp. Windchill Dew Point Humidity Pressure Visibility Wind Dir Wind Speed Gust Speed Precip Events Conditions
12:53 AM 15.1 °F 5.2 °F 1.0 °F 54% 30.06 in 10.0 mi SSW 6.9 mph - N/A   Clear
1:53 AM 14.0 °F - 1.9 °F 59% 30.07 in 10.0 mi Calm Calm - N/A   Clear
2:53 AM 16.0 °F 7.4 °F 1.0 °F 52% 30.06 in 10.0 mi SW 5.8 mph - N/A   Clear
3:53 AM 12.9 °F -0.2 °F -0.0 °F 56% 30.06 in 10.0 mi South 10.4 mph - N/A   Clear
5:53 AM 10.9 °F 0.2 °F 3.0 °F 70% 30.10 in 10.0 mi SW 6.9 mph - N/A   Clear
6:53 AM 10.9 °F 0.2 °F 1.9 °F 67% 30.12 in 10.0 mi West 6.9 mph - N/A   Clear
7:53 AM 19.9 °F 8.6 °F 9.0 °F 62% 30.09 in 10.0 mi SW 10.4 mph - N/A   Clear
8:53 AM 28.9 °F 19.8 °F 10.0 °F 45% 30.07 in 10.0 mi West 10.4 mph - N/A   Clear
9:53 AM 36.0 °F 28.0 °F 10.9 °F 36% 30.05 in 10.0 mi West 11.5 mph - N/A   Clear
10:53 AM 43.0 °F 37.7 °F 10.9 °F 27% 30.01 in 10.0 mi West 9.2 mph - N/A   Clear
11:53 AM 46.9 °F - 10.0 °F 22% 29.99 in 10.0 mi West 8.1 mph - N/A   Clear
12:53 PM 51.1 °F - 9.0 °F 18% 29.94 in 10.0 mi Variable 3.5 mph - N/A   Clear
1:53 PM 53.1 °F - 10.0 °F 18% 29.92 in 10.0 mi Variable 5.8 mph - N/A   Clear
2:53 PM 54.0 °F - 10.0 °F 17% 29.91 in 10.0 mi Calm Calm - N/A   Clear
3:53 PM 54.0 °F - 10.0 °F 17% 29.91 in 10.0 mi SSW 3.5 mph - N/A   Clear
4:53 PM 52.0 °F - 9.0 °F 18% 29.92 in 10.0 mi Calm Calm - N/A   Clear
5:53 PM 45.0 °F 42.6 °F 9.0 °F 23% 29.96 in 10.0 mi South 4.6 mph - N/A   Clear
6:53 PM 30.9 °F 25.2 °F 5.0 °F 33% 30.01 in 10.0 mi SSW 5.8 mph - N/A   Clear
7:53 PM 28.0 °F 20.8 °F 5.0 °F 38% 30.02 in 10.0 mi Variable 6.9 mph - N/A   Clear
8:53 PM 28.0 °F 24.2 °F 6.1 °F 39% 30.01 in 10.0 mi WSW 3.5 mph - N/A   Clear
9:53 PM 24.1 °F - 3.9 °F 42% 30.03 in 10.0 mi Calm Calm - N/A   Clear
10:53 PM 32.0 °F - 6.1 °F 34% 30.02 in 10.0 mi Calm Calm - N/A   Clear
11:53 PM 25.0 °F - 6.1 °F 45% 30.04 in 10.0 mi Calm Calm - N/A   Clear